Weather History for Fort Worth, TX

Change the Weather History Date:

Friday, March 7, 2014

  Actual Average Record
Temperature  
Mean Temperature 52 °F -  
Max Temperature 66 °F 60 °F 79 °F (2003)
Min Temperature 39 °F 41 °F 30 °F (2008)
Degree Days  
Heating Degree Days 12    
Growing Degree Days 2 (Base 50)    
Moisture  
Dew Point 39 °F    
Average Humidity 61    
Maximum Humidity 89    
Minimum Humidity 38    
Precipitation  
Precipitation 0.00 in - - ()
Sea Level Pressure  
Sea Level Pressure 29.91 in    
Wind  
Wind Speed 11 mph (SSE)    
Max Wind Speed 23 mph    
Max Gust Speed 29 mph    
Visibility 8 miles    
Events      
Averages and records for this station are not official NWS values.
T = Trace of Precipitation, MM = Missing Value Source: NWS Daily Summary

Daily Weather History Graph

Daily Weather History Graph

Search for Another Location

Airport:

Trip Planner

Search our weather history database for the weather conditions in past years. The results will help you decide how hot, cold, wet, or windy it might be!

Date:

Astronomy

Mar. 07, 2014 Rise Set
Actual Time 6:49 AM CST 6:31 PM CST
Civil Twilight 6:25 AM CST 6:56 PM CST
Nautical Twilight 5:56 AM CST 7:24 PM CST
Astronomical Twilight 5:28 AM CST 7:53 PM CST
Moon 11:03 AM CST (3/7) 12:18 AM CST (3/7)
Length of Visible Light 12h 30m
Length of Day
11h 41m
Waxing Crescent, 42% of the Moon is Illuminated
Mar 7
Waxing Crescent
Mar 8
First Quarter
Mar 16
Full
Mar 23
Last Quarter
Mar 30
New

Hourly Weather History & Observations

Time (CST) Temp. Windchill Dew Point Humidity Pressure Visibility Wind Dir Wind Speed Gust Speed Precip Events Conditions
12:53 AM 39.9 °F 36.7 °F 34.0 °F 79% 30.04 in 7.0 mi South 4.6 mph - N/A   Clear
1:53 AM 41.0 °F 37.1 °F 34.0 °F 76% 30.01 in 7.0 mi SSE 5.8 mph - N/A   Clear
2:53 AM 39.9 °F 35.8 °F 34.0 °F 79% 29.99 in 6.0 mi SSE 5.8 mph - N/A   Haze
3:53 AM 39.0 °F 34.8 °F 35.1 °F 86% 29.98 in 5.0 mi South 5.8 mph - N/A   Clear
4:53 AM 39.0 °F 32.8 °F 35.1 °F 86% 29.98 in 5.0 mi South 9.2 mph - N/A   Clear
5:53 AM 41.0 °F 35.8 °F 36.0 °F 82% 29.99 in 5.0 mi SSE 8.1 mph - N/A   Haze
6:53 AM 39.0 °F 32.8 °F 36.0 °F 89% 30.00 in 3.0 mi SSE 9.2 mph - N/A   Clear
7:53 AM 42.1 °F 36.6 °F 37.0 °F 82% 30.00 in 4.0 mi SE 9.2 mph - N/A   Haze
8:53 AM 46.0 °F 41.0 °F 39.0 °F 76% 29.99 in 5.0 mi SSE 10.4 mph - N/A   Haze
9:53 AM 50.0 °F - 39.0 °F 66% 29.98 in 7.0 mi SSE 16.1 mph - N/A   Clear
10:53 AM 55.0 °F - 39.0 °F 55% 29.97 in 9.0 mi SSE 20.7 mph 27.6 mph N/A   Clear
11:53 AM 61.0 °F - 39.9 °F 46% 29.93 in 10.0 mi South 18.4 mph 27.6 mph N/A   Clear
12:53 PM 64.9 °F - 39.9 °F 40% 29.88 in 10.0 mi South 20.7 mph 27.6 mph N/A   Clear
1:53 PM 66.0 °F - 41.0 °F 40% 29.85 in 10.0 mi SSE 20.7 mph 27.6 mph N/A   Clear
2:53 PM 66.9 °F - 41.0 °F 39% 29.82 in 10.0 mi SSE 23.0 mph - N/A   Clear
3:53 PM 66.9 °F - 41.0 °F 39% 29.81 in 10.0 mi SSE 21.9 mph 28.8 mph N/A   Clear
4:53 PM 66.0 °F - 39.9 °F 38% 29.80 in 10.0 mi South 21.9 mph 28.8 mph N/A   Clear
5:53 PM 64.9 °F - 39.9 °F 40% 29.81 in 10.0 mi SSE 13.8 mph 23.0 mph N/A   Clear
6:53 PM 61.0 °F - 39.9 °F 46% 29.83 in 10.0 mi SSE 12.7 mph 23.0 mph N/A   Clear
7:53 PM 59.0 °F - 39.9 °F 49% 29.84 in 10.0 mi SSE 12.7 mph - N/A   Clear
8:53 PM 59.0 °F - 41.0 °F 51% 29.85 in 10.0 mi SSE 17.3 mph - N/A   Clear
9:53 PM 57.0 °F - 42.1 °F 57% 29.84 in 10.0 mi South 16.1 mph - N/A   Clear
10:53 PM 55.9 °F - 43.0 °F 62% 29.84 in 10.0 mi South 15.0 mph - N/A   Clear
11:53 PM 55.0 °F - 45.0 °F 69% 29.83 in 10.0 mi South 11.5 mph - N/A   Clear